Location: Tr�vern
(48.0333°N, 4.6000°W)
Time: 02:58:45
(UTC+00:00)

Cosmos 1633 Rocket - Pass Details

Date: 14 July 2020
Orbit: 608 x 623 km, 82.5° (Epoch: 04 August)

Event Time Altitude Azimuth Distance (km) Brightness Sun altitude
Exits shadow 01:20:40 33° 241° (WSW) 1,054 3.9 -19.2°
Maximum altitude 01:22:02 43° 285° (WNW) 880 3.8 -19.1°
Drops below altitude 10° 01:26:16 10° 357° (N) 2,002 6.8 -19.0°
Sets 01:28:37 0° 4° (N) 2,915 8.1 -18.9°
